| time (UTC) | temp F | wind direction | speed knots | gust knots | rain 1hr in | rain 24hr in | rain mn in | humidity % | barometer mb |
| 20260502210037 | 71 | 351 | 7.8 | 15.6 | 0.00 | 0.65 | 0.17 | 52 | 1016.4 |
| 20260502204541 | 72 | 302 | 5.2 | 13.0 | 0.00 | 0.90 | 0.17 | 53 | 1016.6 |
| 20260502203039 | 72 | 340 | 5.2 | 15.6 | 0.00 | 0.90 | 0.17 | 55 | 1016.9 |
| 20260502201535 | 71 | 350 | 7.0 | 16.5 | 0.00 | 0.90 | 0.17 | 55 | 1017.0 |
| 20260502200034 | 71 | 333 | 6.1 | 16.5 | 0.00 | 0.90 | 0.17 | 54 | 1017.0 |
| 20260502194541 | 72 | 338 | 6.1 | 17.4 | 0.00 | 1.97 | 0.17 | 55 | 1017.2 |
| 20260502193033 | 71 | 314 | 7.0 | 17.4 | 0.00 | 1.97 | 0.17 | 56 | 1017.2 |
| 20260502191535 | 70 | 340 | 9.6 | 17.4 | 0.00 | 1.97 | 0.17 | 55 | 1017.2 |
| 20260502190040 | 71 | 360 | 7.8 | 15.6 | 0.00 | 1.97 | 0.17 | 61 | 1017.4 |
| 20260502184548 | 70 | 9 | 9.6 | 20.0 | 0.00 | 2.52 | 0.17 | 61 | 1017.3 |
| 20260502183047 | 70 | 66 | 6.1 | 18.2 | 0.00 | 2.52 | 0.17 | 66 | 1017.4 |
| 20260502181538 | 70 | 24 | 6.1 | 13.9 | 0.00 | 2.52 | 0.17 | 68 | 1017.7 |
| 20260502163042 | 67 | 11 | 6.1 | 15.6 | 0.00 | 3.39 | 0.17 | 76 | 1018.4 |
| 20260502161534 | 66 | 350 | 7.8 | 13.0 | 0.00 | 3.39 | 0.17 | 77 | 1018.2 |
| 20260502151540 | 63 | 62 | 5.2 | 13.0 | 0.00 | 3.39 | 0.17 | 83 | 1018.0 |
| 20260502123030 | 55 | 34 | 5.2 | 13.0 | 0.00 | 3.39 | 0.17 | 92 | 1015.8 |
| 20260502121536 | 54 | 13 | 4.3 | 10.4 | 0.00 | 3.39 | 0.17 | 92 | 1015.7 |
| 20260502114547 | 54 | 32 | 3.5 | 7.8 | 0.00 | 3.39 | 0.17 | 91 | 1015.2 |
| 20260502113040 | 54 | 5 | 4.3 | 8.7 | 0.00 | 3.39 | 0.17 | 90 | 1015.0 |
| 20260502111536 | 54 | 325 | 5.2 | 11.3 | 0.00 | 3.39 | 0.17 | 90 | 1015.1 |
| 20260502110038 | 54 | 38 | 4.3 | 9.6 | 0.00 | 3.39 | 0.17 | 90 | 1015.0 |
| 20260502104541 | 54 | 5 | 4.3 | 13.0 | 0.00 | 3.39 | 0.17 | 91 | 1014.8 |
| 20260502103037 | 54 | 328 | 6.1 | 13.0 | 0.00 | 3.39 | 0.17 | 91 | 1014.8 |
| 20260502101558 | 54 | 318 | 4.3 | 13.0 | 0.00 | 3.39 | 0.17 | 92 | 1014.6 |
| 20260502070052 | 54 | 311 | 3.5 | 13.0 | 0.02 | 3.38 | 0.16 | 97 | 1013.6 |
| 20260502064534 | 54 | 5 | 6.1 | 12.2 | 0.04 | 3.37 | 0.15 | 97 | 1013.4 |
| 20260502063038 | 54 | 5 | 4.3 | 9.6 | 0.08 | 3.37 | 0.15 | 97 | 1013.9 |
| 20260502061530 | 54 | 40 | 5.2 | 8.7 | 0.14 | 3.37 | 0.15 | 97 | 1013.6 |
| 20260502060030 | 54 | 55 | 3.5 | 7.8 | 0.14 | 3.36 | 0.14 | 97 | 1013.9 |
| 20260502054534 | 55 | 38 | 2.6 | 11.3 | 0.11 | 3.33 | 0.11 | 97 | 1014.5 |
| 20260502053044 | 55 | 352 | 7.0 | 15.6 | 0.10 | 3.29 | 0.07 | 97 | 1013.5 |
| 20260502051534 | 55 | 351 | 5.2 | 10.4 | 0.08 | 3.23 | 0.01 | 97 | 1013.5 |
| 20260502050040 | 55 | 5 | 7.0 | 13.9 | 0.09 | 3.22 | 0.00 | 97 | 1013.0 |
| 20260502044536 | 56 | 355 | 7.0 | 13.0 | 0.09 | 3.21 | 3.21 | 96 | 1013.4 |
| 20260502043036 | 56 | 323 | 5.2 | 11.3 | 0.07 | 3.19 | 3.19 | 96 | 1013.5 |
| 20260502041535 | 56 | 14 | 7.0 | 13.9 | 0.04 | 3.15 | 3.15 | 96 | 1013.4 |
| 20260502040041 | 57 | 355 | 6.1 | 11.3 | 0.02 | 3.13 | 3.13 | 96 | 1013.6 |
| 20260502034536 | 56 | 316 | 5.2 | 15.6 | 0.01 | 3.12 | 3.12 | 96 | 1013.3 |
| 20260502033035 | 56 | 25 | 7.0 | 18.2 | 0.01 | 3.12 | 3.12 | 96 | 1013.0 |
| 20260502031537 | 56 | 11 | 7.8 | 16.5 | 0.00 | 3.11 | 3.11 | 96 | 1012.7 |
| 20260502030034 | 56 | 32 | 7.8 | 17.4 | 0.00 | 3.11 | 3.11 | 97 | 1012.7 |
| 20260502024535 | 57 | 26 | 6.1 | 16.5 | 0.00 | 3.11 | 3.11 | 97 | 1012.7 |
| 20260502023039 | 57 | 46 | 7.0 | 14.8 | 0.00 | 3.11 | 3.11 | 97 | 1012.2 |
| 20260502021536 | 58 | 37 | 5.2 | 10.4 | 0.00 | 3.11 | 3.11 | 97 | 1012.1 |
| 20260502020039 | 57 | 50 | 5.2 | 11.3 | 0.00 | 3.11 | 3.11 | 98 | 1011.9 |
| 20260502014530 | 57 | 54 | 6.1 | 17.4 | 0.00 | 3.11 | 3.11 | 98 | 1011.8 |
| 20260502013051 | 58 | 21 | 7.0 | 14.8 | 0.00 | 3.11 | 3.11 | 98 | 1011.3 |
| 20260502011535 | 58 | 99 | 4.3 | 10.4 | 0.00 | 3.11 | 3.11 | 98 | 1010.8 |
| 20260502010035 | 58 | 11 | 5.2 | 13.9 | 0.00 | 3.11 | 3.11 | 98 | 1009.9 |
| 20260502004537 | 58 | 340 | 6.1 | 14.8 | 0.02 | 3.11 | 3.11 | 98 | 1009.3 |
| 20260502003036 | 58 | 360 | 7.0 | 13.0 | 0.07 | 3.11 | 3.11 | 98 | 1007.9 |
| 20260502001545 | 58 | 49 | 7.8 | 13.0 | 0.13 | 3.11 | 3.11 | 98 | 1007.9 |
| 20260502000036 | 58 | 78 | 6.1 | 11.3 | 0.21 | 3.11 | 3.11 | 98 | 1009.1 |
| 20260501234538 | 58 | 76 | 3.5 | 10.4 | 0.21 | 3.09 | 3.09 | 98 | 1010.7 |
| 20260501233042 | 58 | 24 | 4.3 | 9.6 | 0.16 | 3.03 | 3.03 | 98 | 1011.2 |
| 20260501231535 | 58 | 55 | 6.1 | 11.3 | 0.11 | 2.97 | 2.97 | 98 | 1011.1 |
| 20260501230037 | 58 | 37 | 3.5 | 12.2 | 0.04 | 2.90 | 2.90 | 98 | 1011.2 |
| 20260501224533 | 58 | 35 | 7.0 | 15.6 | 0.02 | 2.88 | 2.88 | 98 | 1010.6 |
| 20260501223030 | 58 | 80 | 8.7 | 16.5 | 0.03 | 2.87 | 2.87 | 98 | 1009.6 |
| 20260501221533 | 59 | 9 | 6.1 | 14.8 | 0.08 | 2.86 | 2.86 | 98 | 1010.7 |
| 20260501220107 | 59 | 25 | 4.3 | 13.0 | 0.12 | 2.86 | 2.86 | 99 | 1010.8 |
| 20260501214538 | 59 | 57 | 6.1 | 11.3 | 0.17 | 2.86 | 2.86 | 99 | 1010.0 |
| 20260501213034 | 59 | 5 | 6.1 | 13.0 | 0.19 | 2.84 | 2.84 | 98 | 1010.1 |
| 20260501211531 | 60 | 43 | 5.2 | 13.0 | 0.20 | 2.78 | 2.78 | 98 | 1009.9 |